User: anonymous   Login
Location: Home
(51.5204°N, 2.5456°W)
Time: 18:07:59
(UTC+00:00)
Language:

LilacSat-2 - Orbit

View from above orbital plane
View from above orbital plane
View from above satellite
View from above satellite

Ground track
Ground track

The orbit data is extracted from the following two-line orbital elements,

1 40908U 15049K   19342.45408412  .00000180  00000-0  13573-4 0  9999
2 40908  97.4848 340.0362 0015258 331.0753 185.3595 15.13908009232946
Epoch (UTC): 08 December 2019 10:53:52
Eccentricity: 0.0015258
inclination: 97.4848°
perigee height: 514 km
apogee height: 535 km
right ascension of ascending node: 340.0362°
argument of perigee: 331.0753°
revolutions per day: 15.13908009
mean anomaly at epoch: 185.3595°
orbit number at epoch: 23294

The dashed part of the orbit path shows where the satellite is in the earth's shadow,  

DLR